Pine Ridge, SD

2:15 AM MDT on October 23, 2017 (GMT -0600)
Pine Ridge

Weather History for KIEN - August, 2014

Change the Weather History Date:

Tuesday, August 26, 2014

  Actual Average Record
Temperature  
Mean Temperature 68 °F 70 °F  
Max Temperature 83 °F 86 °F 101 °F (2010)
Min Temperature 52 °F 53 °F 46 °F (2005)
Degree Days  
Heating Degree Days 0 1  
Month to date heating degree days 6 14  
Since 1 June heating degree days 142 113  
Since 1 July heating degree days 34 26  
Cooling Degree Days 3 6  
Month to date cooling degree days 157 215  
Year to date cooling degree days 415 623  
Since 1 June cooling degree days 390 606  
Growing Degree Days 18 (Base 50)    
Moisture  
Dew Point 57 °F    
Average Humidity 74    
Maximum Humidity 100    
Minimum Humidity 47    
Precipitation  
Precipitation 1.34 in 0.05 in 1.34 in (2014)
Month to date precipitation 3.03 1.61  
Year to date precipitation 17.73 13.55  
Sea Level Pressure  
Sea Level Pressure 30.11 in    
Wind  
Wind Speed 7 mph (East)    
Max Wind Speed 48 mph    
Max Gust Speed 76 mph    
Visibility 6 miles    
Events Fog , Rain , Thunderstorm    
T = Trace of Precipitation, MM = Missing Value Source: NWS Daily Summary

Daily Weather History Graph

Daily Weather History Graph

Search for Another Location

Airport or City:

Trip Planner

Search our weather history database for the weather conditions in past years. The results will help you decide how hot, cold, wet, or windy it might be!

Date:

Astronomy

Aug. 26, 2014 Rise Set
Actual Time 6:07 AM MDT 7:34 PM MDT
Civil Twilight 5:38 AM MDT 8:04 PM MDT
Nautical Twilight 5:02 AM MDT 8:40 PM MDT
Astronomical Twilight 4:24 AM MDT 9:17 PM MDT
Moon 7:13 AM MDT (8/26) 7:53 PM MDT (8/26)
Length of Visible Light 14h 26m
Length of Day
13h 26m
New Moon, 1% of the Moon is Illuminated
Aug 26
New Moon
Sep 2
First Quarter
Sep 8
Full
Sep 15
Last Quarter
Sep 24
New

Hourly Weather History & Observations

Time (MDT) Temp. Heat Index Dew Point Humidity Pressure Visibility Wind Dir Wind Speed Gust Speed Precip Events Conditions
12:52 AM 53.1 °F - 50.0 °F 89% 30.17 in 10.0 mi NNE 4.6 mph - N/A   Overcast
1:52 AM 54.0 °F - 50.0 °F 86% 30.17 in 10.0 mi NNW 4.6 mph - N/A   Mostly Cloudy
3:52 AM 55.0 °F - 51.1 °F 86% 30.14 in 10.0 mi East 3.5 mph - N/A   Mostly Cloudy
4:52 AM 55.9 °F - 51.1 °F 84% 30.14 in 10.0 mi SE 5.8 mph - N/A Thunderstorm Overcast
5:13 AM 57.0 °F - 51.1 °F 81% 30.22 in 10.0 mi NW 6.9 mph - N/A Thunderstorm Thunderstorm
5:29 AM 57.0 °F - 51.1 °F 81% 30.24 in 10.0 mi Variable 4.6 mph - N/A Thunderstorm Thunderstorm
5:52 AM 55.9 °F - 52.0 °F 87% 30.17 in 7.0 mi NE 5.8 mph - 0.10 in Rain , Thunderstorm Light Thunderstorms and Rain
6:08 AM 55.0 °F - 52.0 °F 89% 30.18 in 10.0 mi East 9.2 mph - 0.00 in Thunderstorm Overcast
6:17 AM 55.9 °F - 52.0 °F 87% 30.17 in 10.0 mi East 15.0 mph - 0.00 in   Overcast
6:52 AM 55.0 °F - 52.0 °F 89% 30.11 in 10.0 mi SE 9.2 mph - 0.00 in   Clear
7:52 AM 57.9 °F - 54.0 °F 87% 30.12 in 10.0 mi East 4.6 mph - N/A   Clear
9:52 AM 66.0 °F - 55.0 °F 68% 30.11 in 10.0 mi South 11.5 mph 20.7 mph N/A   Clear
10:52 AM 73.0 °F - 57.9 °F 59% 30.10 in 10.0 mi South 12.7 mph - N/A   Clear
11:52 AM 77.0 °F - 60.1 °F 56% 30.08 in 10.0 mi SSW 11.5 mph - N/A   Clear
12:52 PM 78.1 °F - 60.1 °F 54% 30.07 in 10.0 mi North - - N/A   Partly Cloudy
1:52 PM 78.1 °F - 60.1 °F 54% 30.05 in 10.0 mi Calm Calm - N/A   Mostly Cloudy
2:52 PM 80.1 °F 80.9 °F 60.1 °F 50% 30.02 in 10.0 mi Calm Calm - N/A   Mostly Cloudy
3:52 PM 82.0 °F 82.7 °F 61.0 °F 49% 30.00 in 10.0 mi ENE 8.1 mph - N/A   Partly Cloudy
4:52 PM 80.1 °F 80.9 °F 60.1 °F 50% 29.99 in 10.0 mi NE 8.1 mph - N/A   Mostly Cloudy
5:52 PM 80.1 °F 81.1 °F 61.0 °F 52% 29.99 in 10.0 mi ENE 6.9 mph - N/A   Scattered Clouds
6:18 PM 80.1 °F 81.1 °F 61.0 °F 52% 30.06 in 10.0 mi NE 10.4 mph - N/A Thunderstorm Mostly Cloudy
6:44 PM 77.0 °F - 61.0 °F 58% 30.06 in 10.0 mi ESE 6.9 mph - N/A Thunderstorm Thunderstorm
6:52 PM 75.9 °F - 61.0 °F 60% 30.00 in 10.0 mi SE 8.1 mph - N/A Thunderstorm Thunderstorm
7:00 PM 68.0 °F - 60.1 °F 76% 30.10 in 0.8 mi WSW 16.1 mph 35.7 mph 0.16 in Rain , Thunderstorm Heavy Thunderstorms and Rain
7:14 PM 62.1 °F - 60.1 °F 93% 30.10 in 2.0 mi North 6.9 mph 19.6 mph 0.38 in Rain , Thunderstorm Thunderstorms and Rain
7:30 PM 63.0 °F - 60.1 °F 90% 30.09 in 5.0 mi NE 10.4 mph - 0.43 in Rain , Thunderstorm Light Thunderstorms and Rain
7:52 PM 64.0 °F - 61.0 °F 90% 30.06 in 10.0 mi NE 5.8 mph - 0.43 in   Mostly Cloudy
8:09 PM 62.1 °F - 61.0 °F 96% 30.11 in 10.0 mi South 5.8 mph - N/A Thunderstorm Scattered Clouds
8:20 PM 63.0 °F - 62.1 °F 97% 30.14 in 10.0 mi WSW 15.0 mph 23.0 mph N/A Thunderstorm Thunderstorm
8:23 PM 62.1 °F - 61.0 °F 96% 30.18 in 1.0 mi SSW 43.7 mph 67.9 mph 0.16 in Rain , Thunderstorm Light Thunderstorms and Rain
8:26 PM 62.1 °F - 60.1 °F 93% 30.17 in 0.2 mi North - - 0.52 in Fog , Rain , Thunderstorm Heavy Thunderstorms and Rain
8:36 PM 61.0 °F - 61.0 °F 100% 30.14 in 0.5 mi North - - 0.78 in Fog , Rain , Thunderstorm Heavy Thunderstorms and Rain
8:40 PM 61.0 °F - 61.0 °F 100% 30.14 in 2.0 mi North - - 0.79 in Rain , Thunderstorm Thunderstorms and Rain
8:44 PM 60.1 °F - 60.1 °F 100% 30.14 in 7.0 mi North - - 0.80 in Rain , Thunderstorm Thunderstorms and Rain
8:52 PM 59.0 °F - 59.0 °F 100% 30.09 in 10.0 mi North - - 0.80 in Rain , Thunderstorm Light Thunderstorms and Rain
9:03 PM 57.0 °F - 57.0 °F 100% 30.13 in 10.0 mi North - - 0.00 in Rain , Thunderstorm Light Rain
9:23 PM 61.0 °F - 61.0 °F 100% 30.14 in 10.0 mi North - - 0.00 in Rain Light Rain
9:52 PM 57.9 °F - 57.9 °F 100% 30.09 in 3.0 mi North - - 0.00 in Rain Light Rain
9:54 PM 57.0 °F - 57.0 °F 100% 30.14 in 1.8 mi North - - 0.00 in Rain Light Rain
10:03 PM 57.0 °F - 57.0 °F 100% 30.14 in 3.0 mi North - - 0.01 in   Overcast
10:46 PM 57.2 °F - 57.2 °F 100% 30.14 in 0.8 mi North - - 0.01 in   Partly Cloudy
10:50 PM 55.4 °F - 55.4 °F 100% 30.14 in 0.2 mi North - - 0.01 in Fog Fog
10:52 PM 55.0 °F - 55.0 °F 100% 30.08 in 0.2 mi North - - 0.01 in Fog Fog
11:01 PM 55.0 °F - 55.0 °F 100% 30.14 in 0.8 mi North - - N/A   Mist
11:15 PM 57.0 °F - 57.0 °F 100% 30.13 in 3.0 mi North - - N/A   Partly Cloudy
11:26 PM 55.9 °F - 55.9 °F 100% 30.14 in 0.8 mi North - - N/A   Mist
11:38 PM 55.0 °F - 55.0 °F 100% 30.13 in 0.2 mi North - - N/A Fog Fog
11:48 PM 55.4 °F - 55.4 °F 100% 30.13 in 0.5 mi North - - N/A Fog Fog
11:52 PM 55.0 °F - 55.0 °F 100% 30.08 in 0.5 mi North - - N/A Fog Fog